Location: *
(48.8780°N, 19.2358°E)
Time: 12:58:17
(UTC+00:00)

STARLINK-77 - Pass Details

Date: 18 October 2019
Orbit: 549 x 551 km, 53.0° (Epoch: 16 November)

Event Time Altitude Azimuth Distance (km) Brightness Sun altitude
Rises 16:21:38 0° 249° (WSW) 2,711 9.1 -6.2°
Reaches altitude 10° 16:23:52 10° 251° (WSW) 1,819 7.9 -6.6°
Maximum altitude 16:28:00 78° 337° (NNW) 566 3.7 -7.2°
Drops below altitude 10° 16:32:09 10° 65° (ENE) 1,826 5.7 -7.9°
Enters shadow 16:32:22 - 65° (ENE) 1,910 5.8 -8.0°
